Regional Weather Roundup
Issued by NWS Cleveland, OH

Home | Current Version | Previous Version | Graphics & Text | Print | Product List | Glossary On
Versions: 1 2 3 4 5 6 7 8 9 10 11 12 13 14 15 16 17 18 19 20 21 22 23 24 25 26 27 28 29 30 31 32 33 34 35 36 37 38 39 40 41 42 43 44 45 46 47 48 49 50
000
ASUS41 KCLE 190100
RWRCLE
OHIO REGIONAL WEATHER ROUNDUP
NATIONAL WEATHER SERVICE WILMINGTON, OH
900 PM EDT THU SEP 18 2014

NOTE: "FAIR" INDICATES FEW OR NO CLOUDS BELOW 12,000 FEET WITH NO
SIGNIFICANT WEATHER AND/OR OBSTRUCTIONS TO VISIBILITY.

OHZ001>008-015>018-024>027-034-035-043-044-190200-
   NORTHWEST OHIO

CITY           SKY/WX    TMP DP  RH WIND       PRES   REMARKS
DEFIANCE       CLEAR     60  51  72 E6        30.14R
FINDLAY        CLEAR     61  50  67 NE8       30.14R
TOLEDO EXPRESS PTCLDY    57  52  83 E5        30.15R
TOLEDO METCALF MOCLDY    61  53  75 NE7       30.16R
LIMA           CLEAR     58  50  75 E8        30.13R
$$

OHZ009>014-019>023-028>033-038-089-190200-
   NORTHEAST OHIO

CITY           SKY/WX    TMP DP  RH WIND       PRES   REMARKS
CLE-HOPKINS    PTCLDY    59  51  75 NE6       30.18R
CLE-LAKEFRONT  PTCLDY    61  51  70 E5        30.15R
CUY CO. ARPT   PTCLDY    55  52  88 E5        30.16R
LORAIN-ELYRIA  CLEAR     58  52  80 CALM      30.16R
ASHTABULA      MOCLDY    53  51  93 CALM      30.17R
AKRON-CANTON   CLEAR     54  47  77 NE7       30.15R
WOOSTER        NOT AVBL
MANSFIELD      CLEAR     55  49  80 NE6       30.15R
YOUNGSTOWN     PTCLDY    54  49  83 N7        30.16R
$$

OHZ042-051>053-060>062-070>072-077>081-190200-
  SOUTHWEST OHIO

CITY           SKY/WX    TMP DP  RH WIND       PRES   REMARKS
CINC-COVINGTON CLEAR     67  44  43 NE7       30.09R
CINC-LUNKEN    CLEAR     55  51  86 CALM      30.10R
HAMILTON       CLEAR     54  51  90 CALM      30.10R
DAYTON         NOT AVBL
WRIGHT-PAT AFB CLEAR     59  49  69 N3        30.11R
DAYTON GENERAL CLEAR     60  50  69 E3        30.10R
WILMINGTON     CLEAR     59  46  62 E6        30.11R
$$

OHZ036-037-039>041-045>050-054>059-063>069-073>076-082>088-190200-
  CENTRAL AND SOUTHEAST OHIO

CITY           SKY/WX    TMP DP  RH WIND       PRES   REMARKS
COLUMBUS       PTCLDY    63  48  58 E3        30.11R
OSU AIRPORT    MOCLDY    60  48  64 NE5       30.12R
BOLTON FIELD   NOT AVBL
RICKENBACK AFB NOT AVBL
NEWARK         CLEAR     53  49  86 CALM      30.12R
MARION         CLEAR     55  49  80 NE8       30.14R
LANCASTER      CLEAR     52  48  86 CALM      30.12R
ZANESVILLE     CLEAR     58  48  69 CALM      30.12R
NEW PHILLY     PTCLDY    58  51  78 N3        30.14R
$$


USA.gov is the U.S. government's official web portal to all federal, state and local government web resources and services.